Date String (YYYY-MM-DD hh:mm:ss) UTC,Instrument flags,absolute air pressure of the measurement (hPa),sample flow rate (lpm),inlet stack bypass flow (lpm),air temperature of the measurement (°C),ambient temperature measured by the external sensor (°C),aerosol sample conditioner tube jacket temperature (°C),OPC LED temperature (°C),internal box temperature (°C),relative humidity of the measurement (%),span deviation,mass concentration of particles derived from Lorenz-Mie calculation of OPC scattering (μg/m³),mass concentration of particles derived from Lorenz-Mie calculation of OPC scattering (μg/m³),mass concentration of particles derived from Lorenz-Mie calculation of OPC scattering (μg/m³)
DateTimeUTC,F1_M11,P_M11,Q1_M11,Q2_M11,T1_M11,T2_M11,T3_M11,T4_M11,T5_M11,U1_M11,ZSPAN_M11,X0_M11,X2_M11,X1_M11
2023-10-08 03:00:00,SystemResetWarning,0835.1,5.00,000.00,028.6,027.3,000.0,036.9,030.2,14.0,0000.0,0009.95,0003.45,0002.71
2023-10-08 03:01:00,SystemResetWarning,0835.1,4.99,000.00,028.6,027.3,000.0,036.9,030.2,13.9,0000.0,0009.18,0003.45,0002.70
2023-10-08 03:02:00,SystemResetWarning,0835.2,5.00,000.00,028.6,027.3,000.0,037.0,030.3,13.9,0000.0,0009.43,0003.42,0002.69
2023-10-08 03:03:00,SystemResetWarning,0835.2,5.01,000.00,028.6,027.3,000.0,037.0,030.3,13.9,0000.0,0009.83,0003.40,0002.70
2023-10-08 03:04:00,SystemResetWarning,0835.2,5.01,000.00,028.6,027.4,000.0,037.0,030.3,13.9,0000.0,0008.93,0003.42,0002.71
2023-10-08 03:05:00,SystemResetWarning,0835.2,5.00,000.00,028.7,027.4,000.0,037.0,030.3,13.9,0000.0,0009.17,0003.46,0002.73
2023-10-08 03:06:00,SystemResetWarning,0835.2,5.00,000.00,028.7,027.4,000.0,037.0,030.3,13.9,0000.0,0009.63,0003.51,0002.77
2023-10-08 03:07:00,SystemResetWarning,0835.1,5.00,000.00,028.7,027.5,000.0,037.0,030.4,13.8,0000.0,0009.54,0003.49,0002.77
2023-10-08 03:08:00,SystemResetWarning,0835.1,5.00,000.00,028.7,027.5,000.0,037.0,030.4,13.8,0000.0,0009.83,0003.51,0002.79
2023-10-08 03:09:00,SystemResetWarning,0835.1,5.00,000.00,028.7,027.5,000.0,037.0,030.4,13.8,0000.0,0010.12,0003.54,0002.80
2023-10-08 03:10:00,SystemResetWarning,0835.1,5.00,000.00,028.7,027.5,000.0,037.1,030.4,13.8,0000.0,0010.23,0003.53,0002.80
2023-10-08 03:11:00,SystemResetWarning,0835.1,5.00,000.00,028.7,027.5,000.0,037.1,030.4,13.7,0000.0,0010.68,0003.54,0002.81
2023-10-08 03:12:00,SystemResetWarning,0835.1,5.00,000.00,028.8,027.5,000.0,037.1,030.4,13.7,0000.0,0010.82,0003.51,0002.80
2023-10-08 03:13:00,SystemResetWarning,0835.2,5.00,000.00,028.8,027.5,000.0,037.1,030.4,13.7,0000.0,0010.13,0003.54,0002.80
2023-10-08 03:14:00,SystemResetWarning,0835.1,5.00,000.00,028.8,027.5,000.0,037.2,030.5,13.7,0000.0,0009.59,0003.55,0002.82
2023-10-08 03:15:00,SystemResetWarning,0835.2,5.00,000.00,028.8,027.6,000.0,037.2,030.5,13.7,0000.0,0009.51,0003.54,0002.82
2023-10-08 03:16:00,SystemResetWarning,0835.2,5.00,000.00,028.8,027.6,000.0,037.2,030.5,13.7,0000.0,0009.36,0003.51,0002.81
2023-10-08 03:17:00,SystemResetWarning,0835.2,5.00,000.00,028.8,027.6,000.0,037.2,030.5,13.7,0000.0,0009.32,0003.45,0002.79
2023-10-08 03:18:00,SystemResetWarning,0835.1,5.00,000.00,028.8,027.6,000.0,037.2,030.5,13.7,0000.0,0009.58,0003.44,0002.80
2023-10-08 03:19:00,SystemResetWarning,0835.1,5.00,000.00,028.9,027.6,000.0,037.2,030.5,13.7,0000.0,0010.04,0003.42,0002.78
2023-10-08 03:20:00,SystemResetWarning,0835.1,5.01,000.00,028.9,027.6,000.0,037.2,030.5,13.6,0000.0,0010.24,0003.37,0002.77
2023-10-08 03:21:00,SystemResetWarning,0835.1,5.00,000.00,028.9,027.6,000.0,037.2,030.6,13.6,0000.0,0010.50,0003.36,0002.76
2023-10-08 03:22:00,SystemResetWarning,0835.1,5.00,000.00,028.9,027.6,000.0,037.2,030.6,13.6,0000.0,0010.83,0003.37,0002.75
2023-10-08 03:23:00,SystemResetWarning,0835.1,5.00,000.00,028.9,027.6,000.0,037.3,030.6,13.6,0000.0,0010.89,0003.43,0002.75
2023-10-08 03:24:00,SystemResetWarning,0835.1,5.00,000.00,028.9,027.6,000.0,037.3,030.6,13.6,0000.0,0010.90,0003.42,0002.75
2023-10-08 03:25:00,SystemResetWarning,0835.2,5.00,000.00,028.9,027.7,000.0,037.3,030.6,13.6,0000.0,0010.96,0003.39,0002.74
2023-10-08 03:26:00,SystemResetWarning,0835.1,5.00,000.00,028.9,027.7,000.0,037.3,030.6,13.6,0000.0,0010.75,0003.36,0002.73
2023-10-08 03:27:00,SystemResetWarning,0835.1,4.99,000.00,029.0,027.7,000.0,037.3,030.6,13.6,0000.0,0011.22,0003.37,0002.72
2023-10-08 03:28:00,SystemResetWarning,0835.1,5.00,000.00,029.0,027.7,000.0,037.3,030.6,13.5,0000.0,0011.20,0003.36,0002.71
2023-10-08 03:29:00,SystemResetWarning,0835.1,5.00,000.00,029.0,027.7,000.0,037.3,030.6,13.5,0000.0,0011.02,0003.36,0002.70
2023-10-08 03:30:00,SystemResetWarning,0835.1,5.00,000.00,029.0,027.7,000.0,037.3,030.6,13.5,0000.0,0010.32,0003.34,0002.70
2023-10-08 03:31:00,SystemResetWarning,0835.2,5.00,000.00,029.0,027.7,000.0,037.4,030.6,13.5,0000.0,0009.75,0003.35,0002.70
2023-10-08 03:32:00,SystemResetWarning,0835.1,5.00,000.00,029.0,027.7,000.0,037.4,030.6,13.5,0000.0,0010.18,0003.37,0002.72
2023-10-08 03:33:00,SystemResetWarning,0835.1,5.00,000.00,029.0,027.7,000.0,037.4,030.7,13.5,0000.0,0010.06,0003.35,0002.73
2023-10-08 03:34:00,SystemResetWarning,0835.2,5.00,000.00,029.0,027.7,000.0,037.4,030.7,13.4,0000.0,0009.64,0003.28,0002.72
2023-10-08 03:35:00,SystemResetWarning,0835.1,5.00,000.00,029.0,027.7,000.0,037.4,030.7,13.4,0000.0,0009.69,0003.28,0002.72
2023-10-08 03:36:00,SystemResetWarning,0835.2,5.00,000.00,029.0,027.7,000.0,037.4,030.7,13.4,0000.0,0009.73,0003.28,0002.73
2023-10-08 03:37:00,SystemResetWarning,0835.2,5.00,000.00,029.0,027.7,000.0,037.4,030.7,13.4,0000.0,0011.26,0003.29,0002.73
2023-10-08 03:38:00,SystemResetWarning,0835.2,5.00,000.00,029.0,027.7,000.0,037.5,030.7,13.4,0000.0,0010.46,0003.28,0002.74
2023-10-08 03:39:00,SystemResetWarning,0835.2,5.00,000.00,029.1,027.7,000.0,037.5,030.7,13.4,0000.0,0009.93,0003.26,0002.76
2023-10-08 03:40:00,SystemResetWarning,0835.3,5.00,000.00,029.1,027.7,000.0,037.5,030.7,13.4,0000.0,0009.94,0003.28,0002.77
2023-10-08 03:41:00,SystemResetWarning,0835.3,5.00,000.00,029.1,027.8,000.0,037.5,030.7,13.4,0000.0,0010.55,0003.30,0002.79
2023-10-08 03:42:00,SystemResetWarning,0835.3,5.00,000.00,029.1,027.8,000.0,037.5,030.7,13.4,0000.0,0010.81,0003.32,0002.79
2023-10-08 03:43:00,SystemResetWarning,0835.3,5.00,000.00,029.1,027.8,000.0,037.5,030.7,13.4,0000.0,0009.73,0003.33,0002.79
2023-10-08 03:44:00,SystemResetWarning,0835.3,5.00,000.00,029.1,027.8,000.0,037.5,030.7,13.4,0000.0,0009.36,0003.35,0002.81
2023-10-08 03:45:00,SystemResetWarning,0835.3,4.99,000.00,029.1,027.3,000.0,037.5,030.7,13.4,0000.0,0009.48,0003.40,0002.84
2023-10-08 03:46:00,SystemResetWarning,0835.3,5.00,000.00,029.0,025.1,000.0,037.4,030.5,13.4,0000.0,0009.52,0003.39,0002.86
2023-10-08 03:47:00,SystemResetWarning,0835.3,5.01,000.00,028.9,024.2,000.0,037.3,030.3,13.5,0000.0,0009.82,0003.38,0002.85
2023-10-08 03:48:00,SystemResetWarning,0835.3,5.01,000.00,028.8,024.2,000.0,037.3,030.0,13.6,0000.0,0008.44,0003.38,0002.85
2023-10-08 03:49:00,SystemResetWarning,0835.3,4.99,000.00,028.7,024.6,000.0,037.3,029.9,13.7,0000.0,0008.38,0003.37,0002.85
2023-10-08 03:50:00,SystemResetWarning,0835.3,5.00,000.00,028.6,025.0,000.0,037.3,030.0,13.8,0000.0,0008.62,0003.39,0002.86
2023-10-08 03:51:00,SystemResetWarning,0835.3,5.00,000.00,028.5,025.3,000.0,037.2,030.0,13.8,0000.0,0008.83,0003.42,0002.86
2023-10-08 03:52:00,SystemResetWarning,0835.3,5.00,000.00,028.5,025.7,000.0,037.2,030.0,13.9,0000.0,0008.88,0003.43,0002.86
2023-10-08 03:53:00,SystemResetWarning,0835.3,5.00,000.00,028.5,026.0,000.0,037.2,030.0,13.9,0000.0,0008.99,0003.44,0002.86
2023-10-08 03:54:00,SystemResetWarning,0835.3,4.99,000.00,028.5,026.2,000.0,037.2,030.0,13.9,0000.0,0008.88,0003.40,0002.87
2023-10-08 03:55:00,SystemResetWarning,0835.2,4.99,000.00,028.5,026.4,000.0,037.1,030.1,13.9,0000.0,0008.81,0003.37,0002.85
2023-10-08 03:56:00,SystemResetWarning,0835.2,5.00,000.00,028.5,026.5,000.0,037.1,030.1,14.0,0000.0,0008.58,0003.32,0002.83
2023-10-08 03:57:00,SystemResetWarning,0835.2,5.00,000.00,028.5,026.7,000.0,037.1,030.1,14.0,0000.0,0008.62,0003.34,0002.82
2023-10-08 03:58:00,SystemResetWarning,0835.3,5.00,000.00,028.5,026.8,000.0,037.1,030.1,13.9,0000.0,0008.21,0003.34,0002.82
2023-10-08 03:59:00,SystemResetWarning,0835.2,5.00,000.00,028.5,026.9,000.0,037.1,030.1,13.9,0000.0,0008.11,0003.35,0002.82
